De Queen, AR

2:18 PM CST on February 17, 2018 (GMT -0600)
Helms Sevier County

Weather History for KDEQ - June, 2013

Change the Weather History Date:

Saturday, June 1, 2013

  Actual Average Record
Temperature  
Mean Temperature 74 °F 74 °F  
Max Temperature 80 °F 85 °F 96 °F (1998)
Min Temperature 67 °F 63 °F 48 °F (1984)
Degree Days  
Heating Degree Days 0 0  
Month to date heating degree days 0 0  
Since 1 June heating degree days 0 0  
Since 1 July heating degree days 3050 3042  
Cooling Degree Days 9 9  
Month to date cooling degree days 9 9  
Year to date cooling degree days 241 226  
Since 1 June cooling degree days 9 9  
Growing Degree Days 24 (Base 50)    
Moisture  
Dew Point 69 °F    
Average Humidity 90    
Maximum Humidity 100    
Minimum Humidity 79    
Precipitation  
Precipitation 0.44 in 0.13 in 1.98 in (1970)
Month to date precipitation 0.44 0.13  
Year to date precipitation 11.54 21.26  
Snow  
Snow 0.00 in - - ()
Month to date snowfall 0.0  
Since 1 June snowfall 0.0  
Since 1 July snowfall 4.5  
Snow Depth 0.00 in    
Sea Level Pressure  
Sea Level Pressure 29.86 in    
Wind  
Wind Speed 3 mph (East)    
Max Wind Speed 16 mph    
Max Gust Speed 21 mph    
Visibility 7 miles    
Events Fog , Rain , Thunderstorm    
T = Trace of Precipitation, MM = Missing Value Source: NWS Daily Summary

Daily Weather History Graph

Daily Weather History Graph

Search for Another Location

Airport or City:

Trip Planner

Search our weather history database for the weather conditions in past years. The results will help you decide how hot, cold, wet, or windy it might be!

Date:

Astronomy

Jun. 01, 2013 Rise Set
Actual Time 6:07 AM CDT 8:24 PM CDT
Civil Twilight 5:38 AM CDT 8:52 PM CDT
Nautical Twilight 5:03 AM CDT 9:28 PM CDT
Astronomical Twilight 4:25 AM CDT 10:06 PM CDT
Moon 1:46 AM CDT (6/1) 2:09 PM CDT (6/1)
Length of Visible Light 15h 14m
Length of Day
14h 16m
Last Quarter, 40% of the Moon is Illuminated
Jun 1
Last Quarter
Jun 8
New
Jun 16
First Quarter
Jun 23
Full
Jun 29
Last Quarter

Hourly Weather History & Observations

Time (CDT) Temp. Heat Index Dew Point Humidity Pressure Visibility Wind Dir Wind Speed Gust Speed Precip Events Conditions
12:53 AM 80.1 °F 84.2 °F 73.0 °F 79% 29.77 in 10.0 mi South 8.1 mph - N/A   Clear
1:53 AM 79.0 °F - 72.0 °F 79% 29.77 in 10.0 mi SSE 6.9 mph - N/A   Clear
2:53 AM 78.1 °F - 72.0 °F 81% 29.76 in 10.0 mi South 4.6 mph - N/A   Clear
3:19 AM 78.1 °F - 72.0 °F 81% 29.78 in 10.0 mi SSE 6.9 mph - N/A   Mostly Cloudy
3:53 AM 77.0 °F - 72.0 °F 84% 29.78 in 10.0 mi South 5.8 mph - N/A   Overcast
4:42 AM 77.0 °F - 71.1 °F 82% 29.77 in 10.0 mi South 8.1 mph - N/A   Mostly Cloudy
4:53 AM 78.1 °F - 71.1 °F 79% 29.75 in 10.0 mi South 6.9 mph - N/A   Overcast
5:53 AM 77.0 °F - 71.1 °F 82% 29.79 in 10.0 mi Calm Calm - N/A   Overcast
6:53 AM 77.0 °F - 71.1 °F 82% 29.80 in 10.0 mi SE 3.5 mph - N/A   Overcast
7:53 AM 77.0 °F - 72.0 °F 84% 29.81 in 10.0 mi SSE 4.6 mph - 0.00 in   Overcast
8:53 AM 78.1 °F - 72.0 °F 81% 29.83 in 10.0 mi South 5.8 mph - N/A   Overcast
9:24 AM 78.1 °F - 72.0 °F 81% 29.86 in 10.0 mi NNE 4.6 mph - N/A Thunderstorm Overcast
9:39 AM 72.0 °F - 64.9 °F 78% 29.87 in 10.0 mi NNE 8.1 mph 21.9 mph N/A   Overcast
9:53 AM 71.1 °F - 64.0 °F 78% 29.88 in 10.0 mi NW 6.9 mph - N/A   Overcast
10:14 AM 68.0 °F - 64.9 °F 90% 29.88 in 2.5 mi North 8.1 mph - 0.04 in Rain , Thunderstorm Light Thunderstorms and Rain
10:19 AM 68.0 °F - 64.9 °F 90% 29.88 in 4.0 mi NNE 6.9 mph - 0.06 in Rain , Thunderstorm Thunderstorms and Rain
10:35 AM 68.0 °F - 64.9 °F 90% 29.88 in 5.0 mi Variable 4.6 mph - 0.11 in Rain , Thunderstorm Rain
10:43 AM 68.0 °F - 64.9 °F 90% 29.89 in 7.0 mi Calm Calm - 0.12 in Rain , Thunderstorm Light Thunderstorms and Rain
10:53 AM 69.1 °F - 64.9 °F 87% 29.87 in 3.0 mi Calm Calm - 0.13 in Rain , Thunderstorm Light Thunderstorms and Rain
11:04 AM 69.1 °F - 66.0 °F 90% 29.88 in 5.0 mi Calm Calm - 0.01 in Rain Light Rain
11:06 AM 69.1 °F - 66.0 °F 90% 29.89 in 2.5 mi Calm Calm - 0.02 in Rain , Thunderstorm Rain
11:14 AM 69.1 °F - 66.0 °F 90% 29.88 in 1.5 mi East 3.5 mph - 0.04 in Rain , Thunderstorm Light Rain
11:20 AM 69.1 °F - 66.0 °F 90% 29.88 in 3.0 mi Calm Calm - 0.04 in Rain Light Rain
11:30 AM 70.0 °F - 66.0 °F 87% 29.87 in 2.5 mi Variable 4.6 mph - 0.06 in Rain Light Rain
11:40 AM 69.1 °F - 66.0 °F 90% 29.88 in 4.0 mi Calm Calm - 0.06 in Rain Light Rain
11:53 AM 69.1 °F - 66.0 °F 90% 29.87 in 5.0 mi Calm Calm - 0.06 in Rain , Thunderstorm Light Thunderstorms and Rain
11:58 AM 69.1 °F - 66.0 °F 90% 29.89 in 1.8 mi Variable 3.5 mph - 0.01 in Rain , Thunderstorm Thunderstorms and Rain
12:06 PM 69.1 °F - 66.9 °F 93% 29.88 in 1.5 mi SE 3.5 mph - 0.04 in Rain Rain
12:10 PM 70.0 °F - 66.9 °F 90% 29.89 in 3.0 mi Calm Calm - 0.04 in Rain , Thunderstorm Light Rain
12:19 PM 70.0 °F - 66.9 °F 90% 29.88 in 5.0 mi Calm Calm - 0.05 in Rain , Thunderstorm Light Rain
12:46 PM 69.1 °F - 66.9 °F 93% 29.89 in 1.5 mi Calm Calm - 0.07 in Rain Light Rain
12:49 PM 69.8 °F - 66.2 °F 88% 29.89 in 0.8 mi Calm Calm - 0.08 in Rain , Thunderstorm Heavy Thunderstorms and Rain
12:53 PM 69.1 °F - 66.9 °F 93% 29.87 in 0.8 mi East 3.5 mph - 0.13 in Rain , Thunderstorm Heavy Thunderstorms and Rain
1:01 PM 69.1 °F - 66.9 °F 93% 29.88 in 2.0 mi ESE 5.8 mph - 0.05 in Rain , Thunderstorm Heavy Thunderstorms and Rain
1:05 PM 69.1 °F - 68.0 °F 96% 29.88 in 2.5 mi SE 4.6 mph - 0.07 in Rain , Thunderstorm Light Rain
1:12 PM 69.1 °F - 68.0 °F 96% 29.88 in 6.0 mi Calm Calm - 0.08 in Rain , Thunderstorm Light Rain
1:31 PM 70.0 °F - 68.0 °F 93% 29.88 in 10.0 mi SE 4.6 mph - 0.08 in Thunderstorm Overcast
1:46 PM 70.0 °F - 68.0 °F 93% 29.88 in 10.0 mi ESE 4.6 mph - 0.08 in Thunderstorm Overcast
1:53 PM 70.0 °F - 68.0 °F 93% 29.87 in 9.0 mi ESE 4.6 mph - 0.08 in   Overcast
2:10 PM 70.0 °F - 68.0 °F 93% 29.87 in 9.0 mi ENE 3.5 mph - N/A   Overcast
2:34 PM 71.1 °F - 68.0 °F 90% 29.87 in 3.0 mi Calm Calm - 0.01 in Rain Rain
2:53 PM 71.1 °F - 69.1 °F 93% 29.86 in 8.0 mi North 3.5 mph - 0.02 in Rain Light Rain
3:45 PM 72.0 °F - 69.1 °F 91% 29.87 in 10.0 mi Calm Calm - 0.00 in   Overcast
3:53 PM 73.0 °F - 70.0 °F 90% 29.85 in 10.0 mi Calm Calm - 0.00 in   Overcast
4:00 PM 73.0 °F - 70.0 °F 90% 29.86 in 9.0 mi Calm Calm - N/A   Overcast
4:05 PM 73.0 °F - 70.0 °F 90% 29.86 in 4.0 mi Calm Calm - 0.00 in Rain Rain
4:53 PM 73.9 °F - 71.1 °F 91% 29.85 in 10.0 mi ENE 3.5 mph - 0.01 in   Overcast
5:07 PM 73.9 °F - 71.1 °F 91% 29.86 in 10.0 mi Variable 3.5 mph - N/A   Overcast
5:53 PM 73.9 °F - 71.1 °F 91% 29.84 in 10.0 mi North 4.6 mph - N/A   Overcast
6:01 PM 73.9 °F - 71.1 °F 91% 29.85 in 9.0 mi Calm Calm - N/A   Overcast
6:03 PM 73.9 °F - 71.1 °F 91% 29.86 in 9.0 mi Calm Calm - N/A   Overcast
6:31 PM 73.0 °F - 71.1 °F 93% 29.86 in 3.0 mi North 3.5 mph - 0.00 in Rain Light Rain
6:36 PM 73.0 °F - 71.1 °F 93% 29.85 in 2.5 mi NNE 3.5 mph - 0.00 in Rain Light Rain
6:46 PM 73.9 °F - 71.1 °F 91% 29.85 in 10.0 mi NE 3.5 mph - 0.01 in   Overcast
6:53 PM 73.0 °F - 71.1 °F 93% 29.85 in 10.0 mi Calm Calm - 0.01 in   Overcast
7:34 PM 73.0 °F - 70.0 °F 90% 29.87 in 10.0 mi NE 4.6 mph - N/A   Overcast
7:42 PM 73.0 °F - 69.1 °F 87% 29.87 in 10.0 mi NE 4.6 mph - 0.00 in Rain Light Rain
7:53 PM 72.0 °F - 69.1 °F 91% 29.86 in 10.0 mi NE 3.5 mph - 0.00 in   Overcast
8:49 PM 71.6 °F - 69.8 °F 94% 29.90 in 10.0 mi East 5.8 mph - N/A   Overcast
8:53 PM 71.1 °F - 69.1 °F 93% 29.89 in 10.0 mi ESE 5.8 mph - N/A   Overcast
9:02 PM 71.1 °F - 69.1 °F 93% 29.91 in 10.0 mi East 4.6 mph - N/A   Overcast
9:28 PM 70.0 °F - 68.0 °F 93% 29.91 in 10.0 mi ENE 3.5 mph - N/A   Overcast
9:53 PM 70.0 °F - 68.0 °F 93% 29.90 in 10.0 mi East 3.5 mph - N/A   Overcast
10:53 PM 69.1 °F - 66.9 °F 93% 29.91 in 8.0 mi Calm Calm - N/A   Mostly Cloudy
11:34 PM 68.0 °F - 66.9 °F 96% 29.93 in 2.0 mi Calm Calm - N/A   Scattered Clouds
11:37 PM 68.0 °F - 66.0 °F 93% 29.93 in 0.8 mi Calm Calm - N/A   Mostly Cloudy
11:42 PM 68.0 °F - 66.0 °F 93% 29.93 in 0.2 mi Calm Calm - N/A Fog Fog
11:53 PM 66.9 °F - 66.0 °F 97% 29.92 in 0.2 mi Calm Calm - N/A Fog Fog